User: anonymous   Login
Location: Lecco
(45.8566°N, 9.3977°E)
Time: 13:46:15
(UTC+02:00)
Language:

Vanguard 1 - Orbit

View from above orbital plane
View from above orbital plane
View from above satellite
View from above satellite

Ground track
Ground track

The orbit data is extracted from the following two-line orbital elements,

1     5U 58002B   19229.94998805 +.00000020 +00000-0 +52795-4 0  9999
2     5 034.2443 086.2445 1841305 062.1690 315.3244 10.84763662172186
Epoch (UTC): 17 August 2019 22:47:58
Eccentricity: 0.1841305
inclination: 34.2443°
perigee height: 655 km
apogee height: 3829 km
right ascension of ascending node: 86.2445°
argument of perigee: 62.1690°
revolutions per day: 10.84763662
mean anomaly at epoch: 315.3244°
orbit number at epoch: 17218

The dashed part of the orbit path shows where the satellite is in the earth's shadow,  

DLR